GIA2 WIHH-WBSB

Flight info

Callsign GIA2
Flight time N/A
Altitude 33000
Route DENDY W38 AMBOY P648 BUTAX R223 BRU
Aircraft B77W/H-SDE1E2E3FGHIJ2J3J4J5M1RWXY/LB1D1

Departure

Time 2026-04-17 14:34
Airport Halim Perdanakusuma International Airport (WIHH)

Arrival

Time N/A
Airport Brunei International Airport (WBSB)
Time Latitude Longitude Altitude Speed Heading
2026-04-17 13:36 -6.26597 106.88681 98 ft 0 kts 336°
2026-04-17 14:19 -6.26604 106.88684 99 ft 4 kts 341°
2026-04-17 14:19 -6.26625 106.88688 97 ft 4 kts 13°
2026-04-17 14:19 -6.26642 106.88680 97 ft 4 kts 51°
2026-04-17 14:19 -6.26658 106.88658 97 ft 4 kts 54°
2026-04-17 14:20 -6.26668 106.88645 99 ft 1 kts 46°
2026-04-17 14:20 -6.26670 106.88643 98 ft 0 kts 46°
2026-04-17 14:26 -6.26650 106.88674 98 ft 8 kts 59°
2026-04-17 14:27 -6.26619 106.88723 100 ft 8 kts 62°
2026-04-17 14:27 -6.26602 106.88776 100 ft 8 kts 87°
2026-04-17 14:27 -6.26634 106.88821 99 ft 8 kts 146°
2026-04-17 14:27 -6.26657 106.88833 101 ft 0 kts 153°
2026-04-17 14:29 -6.26666 106.88838 101 ft 8 kts 153°
2026-04-17 14:29 -6.26743 106.88875 100 ft 13 kts 163°
2026-04-17 14:29 -6.26798 106.88817 98 ft 13 kts 256°
2026-04-17 14:30 -6.26835 106.88730 99 ft 14 kts 245°
2026-04-17 14:30 -6.26877 106.88639 98 ft 16 kts 244°
2026-04-17 14:30 -6.26922 106.88541 98 ft 16 kts 245°
2026-04-17 14:30 -6.26971 106.88436 96 ft 17 kts 245°
2026-04-17 14:31 -6.27022 106.88326 98 ft 17 kts 245°
2026-04-17 14:31 -6.27074 106.88215 99 ft 17 kts 245°
2026-04-17 14:31 -6.27124 106.88105 100 ft 17 kts 245°
2026-04-17 14:31 -6.27168 106.87994 98 ft 10 kts 265°
2026-04-17 14:32 -6.27169 106.87939 98 ft 14 kts 265°
2026-04-17 14:32 -6.27177 106.87917 101 ft 0 kts 237°
2026-04-17 14:32 -6.27192 106.87915 100 ft 4 kts 171°
2026-04-17 14:32 -6.27196 106.87945 100 ft 5 kts 71°
2026-04-17 14:33 -6.27188 106.87965 101 ft 0 kts 65°
2026-04-17 14:33 -6.27181 106.87979 99 ft 12 kts 65°
2026-04-17 14:33 -6.27061 106.88240 97 ft 89 kts 65°
2026-04-17 14:33 -6.26653 106.89141 152 ft 187 kts 65°
2026-04-17 14:34 -6.26094 106.90306 1459 ft 177 kts 61°
2026-04-17 14:34 -6.25237 106.91181 2588 ft 180 kts 37°
2026-04-17 14:34 -6.24071 106.91884 2853 ft 206 kts 32°
2026-04-17 14:34 -6.22754 106.92622 3049 ft 233 kts 32°
2026-04-17 14:35 -6.21279 106.93446 3487 ft 250 kts 32°
2026-04-17 14:35 -6.19724 106.94323 4141 ft 260 kts 32°
2026-04-17 14:35 -6.18127 106.95232 4920 ft 267 kts 32°